Time,TemperatureF,DewpointF,PressureIn,WindDirection,WindDirectionDegrees,WindSpeedMPH,WindSpeedGustMPH,Humidity,HourlyPrecipIn,Conditions,Clouds,dailyrainin,SoftwareType,DateUTC
2013-11-25 00:13:00,32.7,32.5,29.95,NW,315,4.7,-999.0,99,-99.99,,,0.00,Acu-Link.com,2013-11-25 07:13:00,
2013-11-25 00:28:00,32.7,32.5,29.96,NW,315,4.7,-999.0,99,-99.99,,,0.00,Acu-Link.com,2013-11-25 07:28:00,
2013-11-25 00:43:00,32.7,32.5,29.96,NNW,337,6.3,-999.0,99,-99.99,,,0.01,Acu-Link.com,2013-11-25 07:43:00,
2013-11-25 00:58:00,32.7,32.5,29.95,West,270,4.2,-999.0,99,-99.99,,,0.01,Acu-Link.com,2013-11-25 07:58:00,
2013-11-25 01:13:00,32.7,32.5,29.95,West,270,7.8,-999.0,99,-99.99,,,0.01,Acu-Link.com,2013-11-25 08:13:00,
2013-11-25 01:28:00,32.5,32.3,29.95,WNW,292,5.3,-999.0,99,-99.99,,,0.01,Acu-Link.com,2013-11-25 08:28:00,
2013-11-25 01:43:00,32.5,32.3,29.95,West,270,4.2,-999.0,99,-99.99,,,0.01,Acu-Link.com,2013-11-25 08:43:00,
2013-11-25 01:58:00,32.5,32.3,29.95,NNW,337,4.7,-999.0,99,-99.99,,,0.01,Acu-Link.com,2013-11-25 08:58:00,
2013-11-25 02:14:00,32.5,32.3,29.96,WNW,292,6.3,-999.0,99,-99.99,,,0.01,Acu-Link.com,2013-11-25 09:14:00,
2013-11-25 02:29:00,32.5,32.3,29.96,NE,45,9.9,-999.0,99,-99.99,,,0.01,Acu-Link.com,2013-11-25 09:29:00,
2013-11-25 02:44:00,32.5,32.3,29.97,NE,45,8.3,-999.0,99,-99.99,,,0.01,Acu-Link.com,2013-11-25 09:44:00,
2013-11-25 02:59:00,32.5,32.3,29.97,NW,315,7.3,-999.0,99,-99.99,,,0.01,Acu-Link.com,2013-11-25 09:59:00,
2013-11-25 03:14:00,32.2,32.0,29.96,NE,45,11.4,-999.0,99,-99.99,,,0.01,Acu-Link.com,2013-11-25 10:14:00,
2013-11-25 03:29:00,32.2,32.0,29.95,North,0,7.3,-999.0,99,-99.99,,,0.01,Acu-Link.com,2013-11-25 10:29:00,
2013-11-25 03:44:00,31.3,31.1,29.96,NNW,337,6.8,-999.0,99,-99.99,,,0.01,Acu-Link.com,2013-11-25 10:44:00,
2013-11-25 04:00:00,30.9,30.7,29.96,WSW,247,6.8,-999.0,99,-99.99,,,0.01,Acu-Link.com,2013-11-25 11:00:00,
2013-11-25 04:15:00,30.9,30.7,29.96,SSE,157,0.0,-999.0,99,-99.99,,,0.01,Acu-Link.com,2013-11-25 11:15:00,
2013-11-25 04:30:00,30.9,30.7,29.96,West,270,4.2,-999.0,99,-99.99,,,0.01,Acu-Link.com,2013-11-25 11:30:00,
2013-11-25 04:45:00,30.9,30.7,29.96,East,90,0.0,-999.0,99,-99.99,,,0.01,Acu-Link.com,2013-11-25 11:45:00,
2013-11-25 05:00:00,30.7,30.5,29.97,NW,315,5.8,-999.0,99,-99.99,,,0.01,Acu-Link.com,2013-11-25 12:00:00,
2013-11-25 05:15:00,30.7,30.5,29.98,WNW,292,7.8,-999.0,99,-99.99,,,0.01,Acu-Link.com,2013-11-25 12:15:00,
2013-11-25 05:30:00,30.7,30.5,29.98,SSW,202,3.7,-999.0,99,-99.99,,,0.01,Acu-Link.com,2013-11-25 12:30:00,
2013-11-25 05:45:00,30.6,30.4,29.98,NNW,337,2.7,-999.0,99,-99.99,,,0.01,Acu-Link.com,2013-11-25 12:45:00,
2013-11-25 06:01:00,30.2,30.0,30.00,NNW,337,2.2,-999.0,99,-99.99,,,0.01,Acu-Link.com,2013-11-25 13:01:00,
2013-11-25 06:16:00,29.8,29.6,30.01,ESE,112,2.7,-999.0,99,-99.99,,,0.01,Acu-Link.com,2013-11-25 13:16:00,
2013-11-25 06:31:00,29.8,29.6,30.00,WNW,292,2.2,-999.0,99,-99.99,,,0.01,Acu-Link.com,2013-11-25 13:31:00,
2013-11-25 06:46:00,29.8,29.6,30.00,SSW,202,0.0,-999.0,99,-99.99,,,0.01,Acu-Link.com,2013-11-25 13:46:00,
2013-11-25 07:01:00,30.0,29.8,30.02,North,0,1.1,-999.0,99,-99.99,,,0.01,Acu-Link.com,2013-11-25 14:01:00,
2013-11-25 07:16:00,30.0,29.8,30.03,North,0,5.8,-999.0,99,-99.99,,,0.01,Acu-Link.com,2013-11-25 14:16:00,
2013-11-25 07:31:00,30.0,29.8,30.03,NNW,337,4.2,-999.0,99,-99.99,,,0.01,Acu-Link.com,2013-11-25 14:31:00,
2013-11-25 07:46:00,30.4,30.2,30.04,East,90,0.0,-999.0,99,-99.99,,,0.01,Acu-Link.com,2013-11-25 14:46:00,
2013-11-25 08:01:00,30.6,30.4,30.04,WNW,292,0.0,-999.0,99,-99.99,,,0.01,Acu-Link.com,2013-11-25 15:01:00,
2013-11-25 08:17:00,30.7,30.5,30.05,North,0,2.7,-999.0,99,-99.99,,,0.01,Acu-Link.com,2013-11-25 15:17:00,
2013-11-25 08:32:00,30.9,30.7,30.05,NNW,337,0.0,-999.0,99,-99.99,,,0.01,Acu-Link.com,2013-11-25 15:32:00,
2013-11-25 08:47:00,31.6,31.4,30.05,WNW,292,2.2,-999.0,99,-99.99,,,0.01,Acu-Link.com,2013-11-25 15:47:00,
2013-11-25 09:02:00,32.5,31.5,30.07,NNW,337,4.2,-999.0,96,-99.99,,,0.01,Acu-Link.com,2013-11-25 16:02:00,
2013-11-25 09:17:00,32.7,30.6,30.07,NNE,22,3.7,-999.0,92,-99.99,,,0.01,Acu-Link.com,2013-11-25 16:17:00,
2013-11-25 09:32:00,32.2,30.4,30.07,SE,135,1.1,-999.0,93,-99.99,,,0.01,Acu-Link.com,2013-11-25 16:32:00,
2013-11-25 09:47:00,32.9,30.0,30.08,NE,45,4.2,-999.0,89,-99.99,,,0.01,Acu-Link.com,2013-11-25 16:47:00,
2013-11-25 10:03:00,33.3,30.4,30.08,ENE,67,4.2,-999.0,89,-99.99,,,0.01,Acu-Link.com,2013-11-25 17:03:00,
2013-11-25 10:18:00,32.5,30.4,30.08,NNE,22,3.2,-999.0,92,-99.99,,,0.01,Acu-Link.com,2013-11-25 17:18:00,
2013-11-25 10:33:00,35.6,31.5,30.08,ESE,112,2.2,-999.0,85,-99.99,,,0.01,Acu-Link.com,2013-11-25 17:33:00,
2013-11-25 10:48:00,34.0,31.1,30.09,East,90,5.3,-999.0,89,-99.99,,,0.01,Acu-Link.com,2013-11-25 17:48:00,
2013-11-25 11:03:00,33.4,30.8,30.09,North,0,1.7,-999.0,90,-99.99,,,0.01,Acu-Link.com,2013-11-25 18:03:00,
2013-11-25 11:18:00,34.0,31.4,30.10,ESE,112,4.2,-999.0,90,-99.99,,,0.01,Acu-Link.com,2013-11-25 18:18:00,
2013-11-25 11:33:00,34.2,31.6,30.09,ENE,67,2.2,-999.0,90,-99.99,,,0.01,Acu-Link.com,2013-11-25 18:33:00,
2013-11-25 11:48:00,32.7,30.6,30.08,East,90,3.2,-999.0,92,-99.99,,,0.01,Acu-Link.com,2013-11-25 18:48:00,
2013-11-25 12:03:00,33.1,31.3,30.08,WSW,247,3.2,-999.0,93,-99.99,,,0.01,Acu-Link.com,2013-11-25 19:03:00,
2013-11-25 12:19:00,33.6,31.0,30.08,ENE,67,2.7,-999.0,90,-99.99,,,0.01,Acu-Link.com,2013-11-25 19:19:00,
2013-11-25 12:34:00,33.8,31.2,30.08,WSW,247,1.7,-999.0,90,-99.99,,,0.01,Acu-Link.com,2013-11-25 19:34:00,
2013-11-25 12:49:00,34.0,30.8,30.08,East,90,3.7,-999.0,88,-99.99,,,0.01,Acu-Link.com,2013-11-25 19:49:00,
2013-11-25 13:04:00,34.3,31.1,30.07,NE,45,4.7,-999.0,88,-99.99,,,0.01,Acu-Link.com,2013-11-25 20:04:00,
2013-11-25 13:19:00,34.2,31.6,30.07,SE,135,4.7,-999.0,90,-99.99,,,0.01,Acu-Link.com,2013-11-25 20:19:00,
2013-11-25 13:34:00,34.7,31.5,30.07,ENE,67,3.2,-999.0,88,-99.99,,,0.01,Acu-Link.com,2013-11-25 20:34:00,
2013-11-25 13:49:00,34.3,31.4,30.07,SE,135,3.7,-999.0,89,-99.99,,,0.01,Acu-Link.com,2013-11-25 20:49:00,
2013-11-25 14:04:00,34.9,32.0,30.07,NE,45,3.7,-999.0,89,-99.99,,,0.01,Acu-Link.com,2013-11-25 21:04:00,
2013-11-25 14:19:00,34.7,31.5,30.07,SSE,157,2.2,-999.0,88,-99.99,,,0.01,Acu-Link.com,2013-11-25 21:19:00,
2013-11-25 14:35:00,35.1,31.6,30.08,East,90,3.7,-999.0,87,-99.99,,,0.01,Acu-Link.com,2013-11-25 21:35:00,
2013-11-25 14:50:00,35.2,32.0,30.08,South,180,2.2,-999.0,88,-99.99,,,0.01,Acu-Link.com,2013-11-25 21:50:00,
2013-11-25 15:05:00,36.0,32.5,30.09,North,0,1.1,-999.0,87,-99.99,,,0.01,Acu-Link.com,2013-11-25 22:05:00,
2013-11-25 15:20:00,36.9,32.5,30.08,ESE,112,2.7,-999.0,84,-99.99,,,0.01,Acu-Link.com,2013-11-25 22:20:00,
2013-11-25 15:35:00,36.5,32.4,30.09,ENE,67,1.7,-999.0,85,-99.99,,,0.01,Acu-Link.com,2013-11-25 22:35:00,
2013-11-25 15:50:00,35.8,32.6,30.09,East,90,2.2,-999.0,88,-99.99,,,0.01,Acu-Link.com,2013-11-25 22:50:00,
2013-11-25 16:05:00,37.0,32.9,30.09,ENE,67,3.2,-999.0,85,-99.99,,,0.01,Acu-Link.com,2013-11-25 23:05:00,
2013-11-25 16:20:00,35.6,32.7,30.10,NNE,22,3.7,-999.0,89,-99.99,,,0.01,Acu-Link.com,2013-11-25 23:20:00,
2013-11-25 16:35:00,34.3,32.5,30.11,ESE,112,4.2,-999.0,93,-99.99,,,0.01,Acu-Link.com,2013-11-25 23:35:00,
2013-11-25 16:51:00,35.1,32.7,30.11,East,90,2.7,-999.0,91,-99.99,,,0.01,Acu-Link.com,2013-11-25 23:51:00,
2013-11-25 17:06:00,34.0,32.7,30.10,East,90,3.7,-999.0,95,-99.99,,,0.01,Acu-Link.com,2013-11-26 00:06:00,
2013-11-25 17:21:00,33.4,32.4,30.12,ESE,112,4.7,-999.0,96,-99.99,,,0.01,Acu-Link.com,2013-11-26 00:21:00,
2013-11-25 17:36:00,33.3,32.5,30.11,ESE,112,4.2,-999.0,97,-99.99,,,0.01,Acu-Link.com,2013-11-26 00:36:00,
2013-11-25 17:51:00,33.3,32.5,30.12,ESE,112,2.2,-999.0,97,-99.99,,,0.01,Acu-Link.com,2013-11-26 00:51:00,
2013-11-25 18:06:00,33.1,32.6,30.12,NE,45,1.7,-999.0,98,-99.99,,,0.01,Acu-Link.com,2013-11-26 01:06:00,
2013-11-25 18:21:00,33.1,32.6,30.13,ESE,112,1.7,-999.0,98,-99.99,,,0.01,Acu-Link.com,2013-11-26 01:21:00,
2013-11-25 18:36:00,33.1,32.6,30.13,East,90,2.2,-999.0,98,-99.99,,,0.01,Acu-Link.com,2013-11-26 01:36:00,
2013-11-25 18:51:00,33.1,32.6,30.13,South,180,3.2,-999.0,98,-99.99,,,0.01,Acu-Link.com,2013-11-26 01:51:00,
2013-11-25 19:07:00,32.9,32.4,30.13,East,90,2.2,-999.0,98,-99.99,,,0.01,Acu-Link.com,2013-11-26 02:07:00,
2013-11-25 19:22:00,32.5,32.3,30.14,SE,135,1.7,-999.0,99,-99.99,,,0.01,Acu-Link.com,2013-11-26 02:22:00,
2013-11-25 19:37:00,32.5,32.3,30.14,ESE,112,2.2,-999.0,99,-99.99,,,0.01,Acu-Link.com,2013-11-26 02:37:00,
2013-11-25 19:52:00,32.2,32.0,30.16,South,180,2.2,-999.0,99,-99.99,,,0.01,Acu-Link.com,2013-11-26 02:52:00,
2013-11-25 20:07:00,31.6,31.4,30.15,ESE,112,3.2,-999.0,99,-99.99,,,0.01,Acu-Link.com,2013-11-26 03:07:00,
2013-11-25 20:22:00,31.5,31.3,30.16,SE,135,3.2,-999.0,99,-99.99,,,0.01,Acu-Link.com,2013-11-26 03:22:00,
2013-11-25 20:37:00,31.1,30.9,30.17,ESE,112,4.7,-999.0,99,-99.99,,,0.01,Acu-Link.com,2013-11-26 03:37:00,
2013-11-25 20:53:00,30.7,30.5,30.18,South,180,3.2,-999.0,99,-99.99,,,0.01,Acu-Link.com,2013-11-26 03:53:00,
2013-11-25 21:08:00,30.6,30.4,30.17,SSE,157,2.2,-999.0,99,-99.99,,,0.01,Acu-Link.com,2013-11-26 04:08:00,
2013-11-25 21:23:00,31.1,30.9,30.17,SSE,157,3.2,-999.0,99,-99.99,,,0.01,Acu-Link.com,2013-11-26 04:23:00,
2013-11-25 21:38:00,31.3,31.1,30.18,NW,315,0.0,-999.0,99,-99.99,,,0.01,Acu-Link.com,2013-11-26 04:38:00,
2013-11-25 21:53:00,31.3,31.1,30.18,SE,135,0.0,-999.0,99,-99.99,,,0.01,Acu-Link.com,2013-11-26 04:53:00,
2013-11-25 22:08:00,30.6,30.4,30.18,South,180,0.0,-999.0,99,-99.99,,,0.01,Acu-Link.com,2013-11-26 05:08:00,
2013-11-25 22:23:00,30.4,30.2,30.19,SSE,157,2.2,-999.0,99,-99.99,,,0.01,Acu-Link.com,2013-11-26 05:23:00,
2013-11-25 22:39:00,30.4,30.2,30.19,South,180,0.0,-999.0,99,-99.99,,,0.01,Acu-Link.com,2013-11-26 05:39:00,
2013-11-25 22:54:00,29.5,29.3,30.19,SE,135,0.0,-999.0,99,-99.99,,,0.01,Acu-Link.com,2013-11-26 05:54:00,
2013-11-25 23:09:00,29.3,29.1,30.19,South,180,0.0,-999.0,99,-99.99,,,0.01,Acu-Link.com,2013-11-26 06:09:00,
2013-11-25 23:24:00,28.8,28.6,30.20,SW,225,0.0,-999.0,99,-99.99,,,0.01,Acu-Link.com,2013-11-26 06:24:00,
2013-11-25 23:40:00,28.9,28.7,30.20,WSW,247,2.2,-999.0,99,-99.99,,,0.01,Acu-Link.com,2013-11-26 06:40:00,
2013-11-25 23:55:00,28.8,28.6,30.21,SSW,202,0.0,-999.0,99,-99.99,,,0.01,Acu-Link.com,2013-11-26 06:55:00,